Hourly Data Report for July 22, 2021

WINNIPEG THE FORKS
MANITOBA
Current Station Operator: ECCC - MSC

49°53'18.008" N
97°07'46.007" W
230.00 m
5023262
71579
XWN

Download Data

Hourly Data (July 2021)
Hourly Data Report for July 22, 2021
TIME
LST
Temp Definition
°C
Dew Point Definition
°C
Rel Hum Definition
%
Precip. Amount Definition
mm

Wind Dir Definition
10's deg

Wind Spd Definition
km/h
Visibility Definition
km
Stn Press Definition
kPa
Hmdx Definition


Wind Chill Definition


Weather Definition


00:00 20.3 17.2 82 0.0 9 5   98.54 26   LegendNANA
01:00 19.8 17.1 85 0.1 8 5   98.49     LegendNANA
02:00 19.5 17.0 85 0.0 8 5   98.49     LegendNANA
03:00 19.1 16.8 86 0.0 8 4   98.47     LegendNANA
04:00 19.0 16.8 87 0.0 8 5   98.43     LegendNANA
05:00 18.8 16.9 89 0.0 7 6   98.46     LegendNANA
06:00 19.3 17.4 88 0.0 7 6   98.48     LegendNANA
07:00 20.6 17.8 84 0.0 8 8   98.47 26   LegendNANA
08:00 22.5 18.8 80 0.0 7 7   98.48 29   LegendNANA
09:00 24.2 19.0 73 0.0 8 5   98.51 31   LegendNANA
10:00 25.6 19.3 68 0.0 9 6   98.46 33   LegendNANA
11:00 26.9 20.0 66 0.0 10 5   98.44 34   LegendNANA
12:00 27.6 19.9 63 0.0 7 8   98.43 35   LegendNANA
13:00 28.2 19.7 60 0.0 12 4   98.41 36   LegendNANA
14:00 28.8 20.5 61 0.0 6 3   98.40 37   LegendNANA
15:00 29.4 20.3 58 0.0 9 2   98.37 37   LegendNANA
16:00 29.5 20.6 59 0.0 8 4   98.35 38   LegendNANA
17:00 30.4 20.4 55 0.0 9 6   98.25 38   LegendNANA
18:00 30.6 20.7 56 0.0 4 1   98.24 39   LegendNANA
19:00 29.8 20.5 57 0.0 20 3   98.26 38   LegendNANA
20:00 29.2 20.8 60 0.0   0   98.29 37   LegendNANA
21:00 28.4 20.8 64 0.0 9 4   98.27 37   LegendNANA
22:00 27.4 21.5 70 0.0 10 2   98.24 36   LegendNANA
23:00 26.2 21.0 73 0.0 8 2   98.20 35   LegendNANA

Notes on Data Quality.

Legend

  • E = Estimated
  • M = Missing
  • NA = Not Available*
  • [empty] = Indicates an unobserved value
Date modified: